SCP
0 0 0 0 0 0 0 0 0 0 0 0 0 0 0 0 0 0 0 0 0 0 0 0 0 0 0 0 0 0 0 0 0 0 0 0 0 0 0 0 0 0 0 0 0 0 0 0 0
0 0 0 0 0 0 0 0 0 0 0 0 0 0 0 0 0 0 0 0 0 0 0 0 0 0 0 0 0 0 0 0 0 0 0 0 0 0 0 0 0 0 0 0 0 0 0 0 0
0 0 0 0 0 0 0 0 0 0 0 0 0 0 0 0 0 0 0 0 0 0 0 0 0 0 0 1 1 1 1 0 0 0 0 0 0 0 0 0 0 0 0 0 0 0 0 0 0
0 0 0 0 0 0 0 0 0 0 0 0 0 0 0 0 0 0 0 0 0 0 0 0 0 0 0 0 0 1 1 1 1 1 1 1 0 0 0 0 0 0 0 0 0 0 0 0 0
0 0 0 0 0 0 0 0 0 0 0 0 0 0 0 0 0 0 0 0 0 0 0 0 0 0 0 0 0 0 0 0 0 1 1 1 1 1 1 1 1 0 0 0 0 1 1 1 1
0 0 0 0 0 0 0 0 0 0 0 0 0 0 0 0 0 0 0 0 0 0 0 0 0 0 0 0 0 0 0 0 0 0 0 1 1 1 1 1 1 1 1 1 1 1 1 1 1
0 0 0 0 0 0 0 0 0 0 0 0 0 0 0 0 0 0 0 0 0 0 0 0 0 0 0 0 0 0 0 0 0 0 0 0 1 1 1 1 1 1 1 1 1 1 1 1 1
0 0 0 0 0 0 0 0 0 0 0 0 0 0 0 0 0 0 0 0 0 0 0 0 0 0 0 0 0 0 0 0 0 0 0 0 0 0 1 1 1 1 1 1 1 1 1 1 1
0 0 0 0 0 0 0 0 0 0 0 0 0 0 0 0 0 0 0 0 0 0 0 0 0 0 0 0 0 0 0 0 0 0 0 0 0 0 0 0 0 1 1 1 1 1 1 1 1
0 0 0 0 0 0 0 0 0 0 0 0 0 0 0 0 0 0 0 0 0 0 0 0 0 0 0 0 0 0 0 0 0 0 0 0 0 0 0 0 0 0 0 1 1 1 1 1 1
0 0 0 0 0 0 0 0 0 0 0 0 0 0 0 0 0 0 0 0 0 0 0 0 0 0 0 0 0 0 0 0 0 0 0 0 0 0 0 0 0 0 0 0 1 1 1 1 1
0 0 0 0 0 0 0 0 0 0 0 0 0 0 0 0 0 0 0 0 0 0 0 0 0 0 0 0 0 0 0 0 0 0 0 0 0 0 0 0 0 0 0 0 0 0 0 1 1
0 0 0 0 0 0 0 0 0 0 0 0 0 0 0 0 0 0 0 0 0 0 0 0 0 0 0 0 0 0 0 0 0 0 0 0 0 0 0 0 0 0 0 0 0 0 0 0 0
0 0 0 0 0 0 0 0 0 0 0 0 0 0 0 0 0 0 0 0 0 0 0 0 0 0 0 0 0 0 0 0 0 0 0 0 0 0 0 0 0 0 0 0 0 0 0 0 0
0 0 0 0 0 0 0 0 0 0 0 0 0 0 0 0 0 0 0 0 0 0 0 0 0 0 0 0 0 0 0 0 0 0 0 0 0 0 0 0 0 0 0 0 0 0 0 0 0
0 0 0 0 0 0 0 0 0 0 0 0 0 0 0 0 0 0 0 0 0 0 0 0 0 0 0 0 0 0 0 0 0 0 0 0 0 0 0 0 0 0 0 0 0 0 0 0 0
0 0 0 0 0 0 0 0 0 0 0 0 0 0 0 0 0 0 0 0 0 0 0 0 0 0 0 0 0 0 0 0 0 0 0 0 0 0 0 0 0 0 0 0 0 0 0 0 0
0 0 0 0 0 0 0 0 0 0 0 0 0 0 0 0 0 0 0 0 0 0 0 0 0 0 0 0 0 0 0 0 0 0 0 0 0 0 0 0 0 0 0 0 0 0 0 0 0
0 0 0 0 0 0 0 0 0 0 0 0 0 0 0 0 0 0 0 0 0 0 0 0 0 0 0 0 0 0 0 0 0 0 0 0 0 0 0 0 0 0 0 0 0 0 0 0 0
0 0 0 0 0 0 0 0 0 0 0 0 0 0 0 0 0 0 0 0 0 0 0 0 0 0 0 0 0 0 0 0 0 0 0 0 0 0 0 0 0 0 0 0 0 0 0 0 0
0 0 0 0 0 0 0 0 0 0 0 0 0 0 0 0 0 0 0 0 0 0 0 0 0 0 0 0 0 0 0 0 0 0 0 0 0 0 0 0 0 0 0 0 0 0 0 0 0
0 0 0 0 0 0 0 0 0 0 0 0 0 0 0 0 0 0 0 0 0 0 0 0 0 0 0 0 0 0 0 0 0 0 0 0 0 0 0 0 0 0 0 0 0 0 0 0 0
0 0 0 0 0 0 0 0 0 0 0 0 0 0 0 0 0 0 0 0 0 0 0 0 0 0 0 0 0 0 0 0 0 0 0 0 0 0 0 0 0 0 0 0 0 0 0 0 0
0 0 0 0 0 0 0 0 0 0 0 0 0 0 0 0 0 0 0 0 0 0 0 0 0 0 0 0 0 0 0 0 0 0 0 0 0 0 0 0 0 0 0 0 0 0 0 0 0
0 0 0 0 0 0 0 0 0 0 0 0 0 0 0 0 0 0 0 0 0 0 0 0 0 0 0 0 0 0 0 0 0 0 0 0 0 0 0 0 0 0 0 0 0 0 0 0 0
0 0 0 0 0 0 0 0 0 0 0 0 0 0 0 0 0 0 0 0 0 0 0 0 0 0 0 0 0 0 0 0 0 0 0 0 0 0 0 0 0 0 0 0 0 0 0 0 0
0 0 0 0 0 0 0 0 0 0 0 0 0 0 0 0 0 0 0 0 0 0 0 0 0 0 0 0 0 0 0 -0 0 0 0 0 0 0 0 0 0 0 0 0 0 0 0 0 0
0 0 0 0 0 0 0 0 0 0 0 0 0 0 0 0 0 0 0 0 0 0 0 0 0 0 0 0 0 0 0 0 0 0 0 0 0 0 0 0 0 0 0 0 0 0 0 0 0
0 0 0 0 0 0 0 0 0 0 0 0 0 0 0 0 0 0 0 0 0 0 0 0 0 0 0 0 0 0 0 0 0 0 0 0 0 0 0 0 0 0 0 0 0 0 0 0 0
0 0 0 0 0 0 0 0 0 0 0 0 0 0 0 0 0 0 0 0 0 0 0 0 0 0 0 0 0 0 0 0 0 0 0 0 0 0 0 0 0 0 0 0 0 0 0 0 0
Wind_Speed
7 5 3 3 4 10 13 10 10 12 12 14 15 16 17 17 12 10 14 24 23 17 16 17 17 14 12 11 10 10 10 11 11 11 11 10 10 9 9 8 7 6 6 6 6 6 6 5 4
6 4 2 1 9 14 12 11 14 13 10 5 13 16 16 16 15 10 16 22 19 17 17 20 23 20 17 14 12 11 11 11 11 12 12 12 12 11 11 9 8 7 7 7 8 8 7 7 6
3 3 1 5 12 12 10 11 9 10 18 12 11 14 12 12 12 12 17 19 16 17 18 22 27 26 24 21 19 17 15 13 13 13 13 14 14 13 12 10 9 7 7 7 8 8 8 8 7
3 1 5 13 21 15 12 12 8 6 13 17 11 13 12 11 11 13 15 17 18 19 19 22 28 28 28 27 25 23 21 19 17 16 15 15 15 15 13 12 10 8 7 7 7 7 7 7 7
1 5 12 16 17 13 15 16 16 13 10 15 14 13 10 12 12 13 15 18 19 20 20 22 28 28 28 28 27 26 25 24 23 21 19 17 16 15 14 13 11 9 8 7 6 6 6 6 6
2 4 11 15 14 11 13 17 12 19 14 11 10 11 11 13 14 14 16 18 20 20 20 21 26 26 26 27 27 27 27 26 24 24 23 21 18 16 15 13 12 10 10 9 8 7 7 6 6
6 7 11 13 11 9 9 11 19 13 17 14 9 8 8 17 14 13 15 18 20 21 21 20 21 22 23 24 26 26 26 26 25 25 25 23 20 18 16 14 13 12 11 10 9 9 8 8 7
3 6 9 8 8 8 8 9 12 18 15 12 12 10 9 15 13 13 15 18 21 21 22 21 21 21 19 18 22 23 24 25 24 24 25 23 19 18 17 16 16 15 13 11 10 10 10 9 8
2 6 8 6 7 8 7 9 11 14 18 20 18 17 12 12 13 15 18 21 22 22 21 21 21 21 20 17 18 19 19 21 21 20 23 19 14 15 14 16 18 17 15 13 11 10 10 9 9
6 7 9 8 9 13 15 14 11 12 17 18 18 16 14 14 17 21 23 22 23 23 22 20 21 21 19 15 14 13 13 14 15 16 18 14 13 12 14 15 16 17 15 13 10 10 10 10 9
9 9 10 14 16 16 14 14 11 9 14 15 15 15 15 18 20 21 20 20 19 19 20 20 19 19 18 14 12 10 9 11 13 16 17 14 12 11 11 9 10 11 12 10 10 9 7 7 7
13 13 9 10 11 12 13 13 15 17 13 12 13 14 16 18 19 19 19 19 18 19 20 20 19 18 17 15 11 11 10 9 10 13 16 13 10 11 11 9 10 10 8 10 9 7 9 9 10
13 13 20 23 24 22 22 20 18 16 13 12 13 15 17 18 17 17 17 17 19 20 20 20 20 19 17 15 12 11 11 11 12 11 13 15 12 12 12 10 9 11 10 10 10 10 10 10 10
16 20 17 16 16 15 19 15 10 11 11 12 13 15 15 16 17 17 18 19 19 20 20 19 20 19 18 15 14 12 12 12 12 11 14 15 13 12 12 12 11 10 11 11 11 12 11 10 9
20 18 15 10 11 12 13 15 12 9 9 12 13 13 14 15 15 17 17 17 18 18 19 19 19 19 19 18 16 12 12 13 12 12 13 15 15 14 13 11 11 11 12 13 11 12 10 10 10
8 8 7 6 4 5 3 10 9 6 9 11 11 11 12 13 15 15 16 16 17 18 18 18 16 19 19 17 16 12 12 13 12 12 12 15 16 16 14 11 11 12 12 10 10 10 10 10 10
5 4 6 7 5 3 5 10 8 5 8 10 10 11 11 13 15 15 16 17 17 18 18 18 19 19 19 17 15 14 13 13 12 11 11 14 16 17 14 11 11 13 11 10 10 10 10 11 11
3 3 5 5 5 5 9 13 10 6 7 9 9 10 11 13 14 14 16 17 17 18 18 18 19 19 18 14 13 12 13 12 11 11 13 16 14 17 14 11 14 14 11 11 11 13 11 11 11
3 4 6 5 4 6 11 13 9 6 6 8 9 10 12 12 13 13 15 16 18 19 19 19 20 19 16 13 14 14 13 13 12 12 15 16 16 16 14 12 13 13 12 13 14 12 13 11 10
5 6 6 7 6 5 10 9 7 5 6 7 8 10 11 13 13 14 15 16 17 17 18 18 19 18 17 14 13 12 13 12 12 12 14 16 17 16 13 14 13 13 12 14 14 13 11 10 9
2 1 1 6 6 6 9 9 9 6 4 4 6 8 11 12 13 14 14 16 16 17 18 16 18 18 17 17 12 12 11 11 11 13 12 15 17 16 15 15 14 14 13 12 14 13 13 11 11
1 3 2 8 9 6 10 6 12 9 4 2 7 10 12 13 12 13 14 16 16 16 16 17 17 17 16 16 15 17 13 13 15 13 13 17 17 16 16 16 16 15 13 14 13 13 12 12 10
4 2 3 8 7 3 8 8 7 9 6 2 8 11 12 12 12 13 14 15 15 15 15 15 16 16 17 16 16 16 14 13 12 14 16 16 15 16 16 16 15 15 13 15 15 15 13 10 11
1 3 4 5 6 7 4 7 4 6 3 3 8 11 13 13 12 12 13 13 13 14 14 15 16 16 17 17 16 16 17 17 17 17 16 14 13 13 17 17 16 16 14 15 16 15 16 13 13
3 4 4 3 5 2 4 6 2 9 4 5 9 12 13 12 12 12 13 14 14 15 15 15 16 16 17 17 17 17 17 17 17 17 16 16 13 13 17 17 16 15 15 16 16 15 15 15 14
5 6 6 8 8 5 3 4 6 7 2 4 8 11 12 12 11 12 13 13 14 15 15 15 16 16 17 17 17 16 17 13 12 16 15 15 13 14 18 18 17 17 17 16 16 14 14 13 14
2 2 4 6 6 8 4 3 5 5 2 6 10 12 13 12 11 11 12 13 13 14 14 15 16 16 17 17 17 16 16 16 16 16 15 13 14 15 18 18 18 17 17 16 16 12 15 14 14
4 2 2 5 8 10 7 3 1 6 3 8 12 14 14 11 10 11 12 12 13 13 13 14 15 16 16 17 16 14 16 16 16 15 16 17 17 17 19 19 18 18 17 16 15 14 14 15 14
1 1 0 1 4 8 10 4 7 4 4 9 12 13 13 11 10 11 12 12 13 13 13 14 15 16 16 16 16 16 15 15 16 15 16 16 17 17 18 18 18 18 18 17 15 15 16 16 15
1 1 2 5 5 6 8 2 8 4 5 9 12 13 11 10 11 12 12 13 13 14 14 14 15 15 15 15 15 15 15 15 16 16 16 17 17 17 17 18 18 18 18 17 16 16 15 14 15
Wind_Direction
324 319 284 246 145 89 77 54 59 62 59 55 59 66 66 50 27 48 356 351 349 0 8 11 9 359 351 344 340 338 335 333 333 334 333 331 328 325 319 314 308 304 295 285 280 276 271 266 261
324 305 254 275 106 94 75 53 51 44 25 76 62 58 60 51 27 17 351 342 354 9 15 15 15 13 8 357 347 339 333 329 325 322 321 319 317 316 316 312 309 305 302 293 282 275 270 264 256
297 293 27 68 70 70 65 30 31 66 46 44 68 50 47 23 12 0 346 346 7 20 22 20 20 22 20 16 11 2 352 341 330 322 316 312 309 310 314 310 306 302 297 293 283 272 264 258 249
273 124 73 83 77 57 43 24 21 83 50 28 72 68 70 29 4 351 354 6 20 26 27 26 25 26 26 24 22 19 13 6 356 344 331 320 311 307 309 311 303 295 289 290 288 276 266 259 249
294 86 90 86 82 73 52 36 46 51 55 30 64 83 68 26 11 7 13 19 25 27 26 28 27 26 27 26 24 23 20 16 12 6 355 341 326 314 306 307 304 295 287 288 290 289 277 266 256
87 91 95 88 90 83 62 32 40 49 50 32 52 86 65 21 14 17 21 26 29 29 26 25 25 24 25 25 23 22 21 19 17 13 7 358 349 337 324 316 312 302 288 285 285 285 281 274 265
84 80 92 102 96 74 49 48 35 43 45 33 11 75 64 20 14 20 28 30 31 29 26 23 20 19 19 22 20 19 19 17 15 13 8 2 358 352 347 339 329 317 299 286 283 281 276 269 262
52 104 103 93 91 78 60 65 50 38 49 38 35 57 38 15 19 27 34 34 31 28 25 20 18 15 12 12 16 13 15 14 12 11 7 1 357 357 354 353 348 336 321 304 290 283 276 267 258
29 92 87 73 94 94 87 91 73 67 72 66 61 61 49 31 31 33 33 31 27 24 21 17 14 11 7 5 6 7 9 9 7 7 5 0 356 356 351 354 350 346 339 323 304 292 283 269 245
47 82 64 46 87 103 83 82 98 81 66 64 61 57 48 40 36 36 31 25 21 18 14 13 12 8 4 2 360 1 3 3 4 3 1 357 353 351 348 342 347 345 339 325 315 300 279 259 248
57 70 88 78 93 104 95 77 70 98 61 54 54 50 43 40 38 35 31 25 20 15 13 11 10 7 4 359 357 356 354 356 356 359 358 353 352 348 349 342 344 341 338 337 327 305 284 274 264
83 50 80 94 90 92 95 94 75 70 79 72 64 55 47 42 38 32 26 21 16 14 11 8 7 6 3 359 353 353 352 351 351 352 354 353 349 347 346 340 339 337 338 334 327 316 303 289 274
88 85 78 88 88 89 92 89 88 83 84 79 69 58 50 44 38 33 25 20 15 12 8 5 3 3 359 356 351 351 349 348 345 347 350 353 347 344 342 335 337 334 335 331 326 317 312 299 285
108 111 106 100 97 89 90 87 84 86 88 78 66 57 49 43 34 28 21 16 12 9 4 2 1 0 357 355 351 348 346 345 344 345 348 351 347 342 337 332 333 333 333 328 320 315 309 298 288
122 115 112 114 114 127 99 77 85 100 92 76 65 58 50 42 35 28 21 14 9 5 2 1 357 357 356 353 350 346 345 344 343 344 345 350 347 342 336 330 329 334 329 324 320 317 310 301 292
150 147 119 98 116 160 149 104 102 102 88 73 61 53 47 41 33 27 20 13 9 4 1 359 357 354 354 352 347 346 344 344 342 342 343 348 345 343 336 330 330 332 326 323 323 320 317 307 296
189 168 128 115 53 128 126 126 123 108 88 73 58 46 37 32 26 21 16 12 8 5 0 357 357 355 352 349 345 344 342 342 340 341 344 344 343 342 336 330 331 331 327 325 324 324 319 309 300
147 146 128 109 65 96 117 127 128 108 84 70 53 40 30 25 20 15 11 9 6 3 360 357 356 355 351 349 343 343 341 340 339 341 342 341 340 340 336 331 334 333 328 328 326 322 317 307 298
89 121 115 94 103 104 126 135 135 123 83 59 42 29 21 15 13 12 8 6 3 1 359 356 355 354 353 350 345 343 340 339 338 340 338 338 338 338 336 334 333 333 329 325 322 323 318 313 311
127 130 121 114 114 120 142 145 144 123 78 50 33 22 13 4 3 5 4 4 1 359 356 354 353 351 353 350 343 339 335 335 336 335 334 337 336 337 336 336 334 331 326 323 324 322 315 311 312
125 353 195 156 128 141 158 181 185 159 124 69 38 21 13 5 358 359 359 1 359 359 356 352 350 349 351 349 343 340 338 337 339 337 335 335 334 334 335 335 333 329 326 320 319 316 311 309 306
131 26 246 172 184 184 210 251 177 182 176 45 22 14 7 3 358 357 357 358 358 357 354 350 348 348 350 349 348 346 344 342 339 335 330 330 332 332 333 334 333 329 324 318 316 313 306 299 295
3 9 212 197 220 217 205 260 148 178 214 360 9 5 1 360 357 356 358 356 355 355 353 349 347 348 350 349 349 345 343 339 334 335 332 333 331 331 333 334 332 329 323 319 315 311 303 294 287
286 163 134 172 215 247 193 231 175 171 184 8 1 358 356 357 354 353 355 354 353 353 352 349 347 348 349 348 348 345 342 340 337 338 336 334 330 330 332 332 330 326 323 321 317 313 306 296 285
342 295 276 253 234 255 115 237 42 123 97 15 352 350 350 351 350 350 352 352 352 351 351 348 347 348 349 347 347 342 342 338 336 337 334 333 330 330 330 330 327 325 323 321 319 318 313 305 293
10 345 351 315 310 321 193 263 108 142 102 358 347 346 347 350 351 351 352 351 350 348 348 347 347 346 347 346 343 341 341 337 333 333 330 329 328 327 326 327 324 323 323 322 321 317 316 313 307
330 39 358 287 284 276 245 137 148 185 262 343 348 349 352 350 350 349 350 352 350 348 348 346 344 344 344 343 341 339 340 337 334 331 329 329 327 325 326 325 324 323 323 323 323 317 320 318 312
23 69 251 295 315 306 300 260 136 166 328 347 348 350 350 351 350 349 350 352 351 348 345 344 343 342 341 341 340 337 337 336 333 330 331 330 328 327 326 326 326 324 324 324 323 319 321 323 319
58 124 54 278 289 296 306 16 92 99 14 348 347 351 351 351 350 348 351 351 348 346 345 343 343 341 341 340 338 337 336 335 334 333 332 331 329 329 327 327 326 326 325 326 324 321 321 325 325
343 26 277 297 292 259 286 6 116 77 3 349 346 352 354 352 348 348 348 347 347 345 343 342 341 340 339 338 336 335 335 336 336 335 334 332 331 330 328 327 326 327 327 327 324 322 322 326 328